Location: Newark
(35.6000°N, 117.0333°E)
Time: 04:41:02
(UTC+00:00)

Tiangong 2 - Visible Passes

Search period start: 19 July 2019 00:00
Search period end: 29 July 2019 00:00
Orbit: 185 x 377 km, 42.8° (Epoch: 18 July)

Date Brightness Start Highest point End Pass type
(mag) Time Alt. Az. Time Alt. Az. Time Alt. Az.
19 Jul 2.6 12:36:49 10° NW 12:39:38 29° NNE 12:41:48 14° ENE visible
19 Jul 4.0 14:11:15 10° WNW 14:11:53 15° WNW 14:11:53 15° WNW visible
20 Jul 2.0 12:38:25 10° NW 12:41:26 41° NNE 12:43:07 21° E visible
20 Jul 4.3 14:13:07 10° W 14:13:12 10° W 14:13:12 10° W visible
21 Jul 1.1 12:39:59 10° WNW 12:43:06 68° NNE 12:44:25 30° E visible
22 Jul 1.1 12:41:33 10° WNW 12:44:41 66° SSW 12:45:44 36° SE visible
23 Jul 2.1 12:43:15 10° W 12:46:07 33° SW 12:47:02 27° S visible
24 Jul 3.1 12:45:12 10° W 12:47:26 18° SW 12:48:22 16° SSW visible
